Location: Dumpton Point
(51.3500°N, 1.4433°E)
Time: 07:52:01
(UTC+00:00)

Envisat - Pass Details

Date: 13 December 2021
Orbit: 764 x 766 km, 98.2° (Epoch: 17 January)

Event Time Altitude Azimuth Distance (km) Brightness Sun altitude
Rises 06:34:12 0° 6° (N) 3,247 6.1 -11.1°
Reaches altitude 10° 06:36:58 10° 351° (N) 2,315 5.2 -10.7°
Maximum altitude 06:40:47 22° 303° (WNW) 1,641 4.1 -10.2°
Drops below altitude 10° 06:44:35 10° 254° (WSW) 2,303 5.0 -9.7°
Sets 06:47:20 0° 239° (WSW) 3,225 5.9 -9.3°
